Home > Weather > Managua > Past weeks

Flag for Nicaragua Weather for the Past 2 Weeks in Managua, Nicaragua

Now
75 °F

Passing clouds.


Feels Like: 77 °F
Forecast: 73 / 90 °F
Wind: 12 mph from Southeast

Location: Managua A. C. Sandino

Current Time: Feb 11, 2016 at 3:23:12 AM

Latest Report: Feb 11, 2016 at 3:00 AM


Visibility: N/A

Pressure: 29.92 "Hg

Humidity: 65%

Dew point: 63 °F

Location of ManaguaLocation

Historic Weather in Managua — Graph

°F

Managua Temperature Yesterday

Maximum temperature yesterday: 91 °F (at 1:00 PM)
Minimum temperature yesterday: 73 °F (at 6:00 AM)
Average temperature yesterday: 81 °F

High & Low Weather Summary for the Past Weeks

 TemperatureHumidityPressure
High95 °F (Feb 4, 2:00 PM)94% (Jan 30, 4:00 AM)30.01 "Hg (Jan 30, 4:00 AM)
Low70 °F (Feb 3, 5:00 AM)34% (Feb 4, 3:00 PM)29.74 "Hg (Jan 27, 4:00 PM)
Average82 °F65%29.87 "Hg
* Reported Jan 27 5:00 AM — Feb 11 1:00 AM, Managua, Weather by CustomWeather, © 2016

Note: Actual official high and low records may vary slightly from our data, if they occured in-between our weather recording intervals... More about our weather records

Advertising

Managua Weather History for the Previous 24 Hours

 ConditionsComfort  
Time TempWeatherWind HumidityBarometerVisibility
1:00 AM
Thu, Feb 11
75 °FPassing clouds.9 mph69%29.95 "HgN/A
12:00 AM75 °FPassing clouds.12 mph69%29.98 "HgN/A
11:00 PM
Wed, Feb 10
77 °FPassing clouds.12 mph69%29.98 "HgN/A
10:00 PM79 °FPassing clouds.9 mph65%29.98 "HgN/A
9:00 PM79 °FPassing clouds.9 mph65%29.98 "HgN/A
8:00 PM81 °FPassing clouds.9 mph58%29.98 "HgN/A
7:00 PM81 °FPassing clouds.9 mph58%29.95 "HgN/A
6:00 PM84 °FPassing clouds.9 mph48%29.92 "HgN/A
5:00 PM84 °FPartly sunny.12 mph51%29.92 "HgN/A
3:00 PM88 °FPartly sunny.23 mph46%29.92 "HgN/A
2:00 PM90 °FScattered clouds.23 mph46%29.92 "HgN/A
1:00 PM91 °FScattered clouds.21 mph41%29.92 "HgN/A
12:00 PM90 °FScattered clouds.21 mph43%29.95 "HgN/A
11:00 AM86 °FPartly sunny.16 mph46%29.98 "HgN/A
10:00 AM84 °FPartly sunny.16 mph48%29.98 "HgN/A
9:00 AM81 °FPartly sunny.9 mph51%29.98 "HgN/A
8:00 AM77 °FPartly sunny.12 mph57%29.98 "HgN/A
7:00 AM75 °FPartly sunny.9 mph57%29.98 "HgN/A
6:00 AM73 °FPassing clouds.5 mph83%29.98 "HgN/A
5:00 AM75 °FPassing clouds.7 mph78%29.98 "HgN/A
4:00 AM75 °FPassing clouds.9 mph78%29.98 "HgN/A
Weather by CustomWeather, © 2016

See weather overviewHow to use our weather pages